• en France
  • Liste des pays
  • À 7 jours
  • Température de l'eau
  • Carte satellitaire
  • Carte météo
  • Widgets météo
  • user-avatar
    Se connecter

    Météo par heure à Balchik

    Ce jour, 24 Septembre, Dimanche

    Heure Température Précipitation Vent Pression Humidité
    00:00 +14°C° 0 mm 4 m/s 741 mmHg 53%
    01:00 +13°C° 0 mm 4 m/s 741 mmHg 55%
    02:00 +13°C° 0 mm 3 m/s 741 mmHg 57%
    03:00 +12°C° 0 mm 3 m/s 741 mmHg 59%
    04:00 +12°C° 0 mm 4 m/s 741 mmHg 61%
    05:00 +11°C° 0 mm 4 m/s 741 mmHg 63%
    06:00 +13°C° 0 mm 4 m/s 741 mmHg 59%
    07:00 +14°C° 0 mm 4 m/s 741 mmHg 54%
    08:00 +15°C° 0 mm 5 m/s 742 mmHg 47%
    09:00 +17°C° 0 mm 5 m/s 742 mmHg 43%
    10:00 +20°C° 0 mm 5 m/s 742 mmHg 38%
    11:00 +21°C° 0 mm 5 m/s 742 mmHg 34%
    12:00 +22°C° 0 mm 5 m/s 742 mmHg 33%
    13:00 +23°C° 0 mm 4 m/s 742 mmHg 32%
    14:00 +25°C° 0 mm 4 m/s 742 mmHg 30%
    15:00 +23°C° 0 mm 4 m/s 742 mmHg 32%
    16:00 +24°C° 0 mm 3 m/s 742 mmHg 33%
    17:00 +24°C° 0 mm 3 m/s 742 mmHg 35%
    18:00 +21°C° 0 mm 3 m/s 742 mmHg 41%
    19:00 +19°C° 0 mm 2 m/s 742 mmHg 46%
    20:00 +17°C° 0 mm 2 m/s 742 mmHg 52%
    21:00 +17°C° 0 mm 2 m/s 742 mmHg 55%
    22:00 +16°C° 0 mm 1 m/s 742 mmHg 57%
    23:00 +16°C° 0 mm 1 m/s 743 mmHg 60%

    Demain, 25 Septembre, Lundi

    Heure Température Précipitation Vent Pression Humidité
    00:00 +15°C° 0 mm 1 m/s 743 mmHg 62%
    01:00 +15°C° 0 mm 1 m/s 743 mmHg 65%
    02:00 +15°C° 0 mm 1 m/s 743 mmHg 67%
    03:00 +14°C° 0 mm 1 m/s 742 mmHg 67%
    04:00 +14°C° 0 mm 1 m/s 742 mmHg 68%
    05:00 +14°C° 0 mm 1 m/s 742 mmHg 69%
    06:00 +15°C° 0 mm 1 m/s 742 mmHg 64%
    07:00 +17°C° 0 mm 2 m/s 743 mmHg 60%
    08:00 +18°C° 0 mm 2 m/s 743 mmHg 56%
    09:00 +19°C° 0 mm 3 m/s 743 mmHg 52%
    10:00 +21°C° 0 mm 3 m/s 743 mmHg 48%
    11:00 +22°C° 0 mm 4 m/s 743 mmHg 44%
    12:00 +23°C° 0 mm 5 m/s 743 mmHg 44%
    13:00 +23°C° 0 mm 5 m/s 743 mmHg 43%
    14:00 +23°C° 0 mm 5 m/s 743 mmHg 43%
    15:00 +23°C° 0 mm 5 m/s 742 mmHg 46%
    16:00 +22°C° 0 mm 5 m/s 742 mmHg 50%
    17:00 +21°C° 0 mm 6 m/s 742 mmHg 53%
    18:00 +20°C° 0 mm 5 m/s 742 mmHg 61%
    19:00 +19°C° 0 mm 4 m/s 742 mmHg 69%
    20:00 +17°C° 0 mm 4 m/s 742 mmHg 77%
    21:00 +17°C° 0 mm 4 m/s 742 mmHg 81%
    22:00 +16°C° 0 mm 3 m/s 742 mmHg 84%
    23:00 +16°C° 0 mm 3 m/s 742 mmHg 88%

    Après-demain, 26 Septembre, Mardi

    Heure Température Précipitation Vent Pression Humidité
    00:00 +14°C° 0 mm 3 m/s 742 mmHg 88%
    01:00 +14°C° 0 mm 3 m/s 741 mmHg 88%
    02:00 +14°C° 0 mm 3 m/s 741 mmHg 88%
    03:00 +14°C° 0 mm 3 m/s 741 mmHg 88%
    04:00 +13°C° 0 mm 4 m/s 741 mmHg 88%
    05:00 +13°C° 0 mm 4 m/s 741 mmHg 88%
    06:00 +15°C° 0 mm 4 m/s 741 mmHg 82%
    07:00 +16°C° 0 mm 5 m/s 741 mmHg 76%
    08:00 +19°C° 0 mm 5 m/s 741 mmHg 69%
    09:00 +20°C° 0,2 mm 6 m/s 742 mmHg 65%
    10:00 +22°C° 0,2 mm 6 m/s 742 mmHg 60%
    11:00 +23°C° 0,2 mm 7 m/s 742 mmHg 55%
    12:00 +23°C° 0,6 mm 7 m/s 742 mmHg 57%
    13:00 +22°C° 0,6 mm 8 m/s 742 mmHg 58%
    14:00 +22°C° 0,6 mm 8 m/s 742 mmHg 59%
    15:00 +21°C° 0 mm 8 m/s 742 mmHg 60%
    16:00 +20°C° 0 mm 8 m/s 742 mmHg 61%
    17:00 +20°C° 0 mm 8 m/s 742 mmHg 62%
    18:00 +18°C° 0 mm 7 m/s 742 mmHg 64%
    19:00 +17°C° 0 mm 7 m/s 743 mmHg 67%
    20:00 +16°C° 0 mm 6 m/s 743 mmHg 69%
    21:00 +16°C° 0 mm 6 m/s 743 mmHg 69%
    22:00 +15°C° 0 mm 6 m/s 743 mmHg 68%
    23:00 +15°C° 0 mm 6 m/s 743 mmHg 67%

    27 Septembre, Mercredi

    Heure Température Précipitation Vent Pression Humidité
    00:00 +15°C° 0 mm 5 m/s 743 mmHg 67%
    01:00 +14°C° 0 mm 5 m/s 744 mmHg 67%
    02:00 +14°C° 0 mm 5 m/s 744 mmHg 67%
    03:00 +13°C° 0 mm 5 m/s 744 mmHg 67%
    04:00 +13°C° 0 mm 5 m/s 744 mmHg 67%
    05:00 +13°C° 0 mm 5 m/s 744 mmHg 67%
    06:00 +14°C° 0 mm 6 m/s 744 mmHg 64%
    07:00 +15°C° 0 mm 6 m/s 745 mmHg 62%
    08:00 +16°C° 0 mm 7 m/s 745 mmHg 60%
    09:00 +17°C° 0 mm 7 m/s 746 mmHg 58%
    10:00 +17°C° 0 mm 8 m/s 746 mmHg 57%
    11:00 +18°C° 0 mm 8 m/s 746 mmHg 56%
    12:00 +18°C° 0 mm 8 m/s 746 mmHg 55%
    13:00 +18°C° 0 mm 8 m/s 746 mmHg 54%
    14:00 +18°C° 0 mm 8 m/s 746 mmHg 53%
    15:00 +18°C° 0 mm 7 m/s 746 mmHg 54%
    16:00 +17°C° 0 mm 7 m/s 746 mmHg 55%
    17:00 +17°C° 0 mm 7 m/s 746 mmHg 56%
    18:00 +15°C° 0 mm 6 m/s 747 mmHg 61%
    19:00 +14°C° 0 mm 6 m/s 747 mmHg 65%
    20:00 +13°C° 0 mm 5 m/s 747 mmHg 70%
    21:00 +13°C° 0 mm 5 m/s 747 mmHg 70%
    22:00 +12°C° 0 mm 4 m/s 747 mmHg 71%
    23:00 +12°C° 0 mm 4 m/s 747 mmHg 72%

    28 Septembre, Jeudi

    Heure Température Précipitation Vent Pression Humidité
    00:00 +12°C° 0 mm 4 m/s 747 mmHg 71%
    01:00 +12°C° 0 mm 5 m/s 747 mmHg 71%
    02:00 +10°C° 0 mm 5 m/s 747 mmHg 70%
    03:00 +10°C° 0 mm 5 m/s 747 mmHg 70%
    04:00 +10°C° 0 mm 5 m/s 747 mmHg 70%
    05:00 +10°C° 0 mm 5 m/s 747 mmHg 70%
    06:00 +10°C° 0,1 mm 6 m/s 747 mmHg 67%
    07:00 +11°C° 0,1 mm 6 m/s 747 mmHg 65%
    08:00 +12°C° 0,1 mm 7 m/s 747 mmHg 62%
    09:00 +14°C° 0,1 mm 7 m/s 748 mmHg 60%
    10:00 +14°C° 0,1 mm 7 m/s 748 mmHg 58%
    11:00 +15°C° 0,1 mm 7 m/s 748 mmHg 56%
    12:00 +15°C° 0,1 mm 7 m/s 748 mmHg 57%
    13:00 +15°C° 0,1 mm 7 m/s 747 mmHg 58%
    14:00 +15°C° 0,1 mm 7 m/s 747 mmHg 59%
    15:00 +15°C° 0 mm 7 m/s 747 mmHg 57%
    16:00 +14°C° 0 mm 7 m/s 747 mmHg 56%
    17:00 +14°C° 0 mm 7 m/s 747 mmHg 55%
    18:00 +12°C° 0 mm 7 m/s 747 mmHg 59%
    19:00 +11°C° 0 mm 6 m/s 747 mmHg 62%
    20:00 +10°C° 0 mm 6 m/s 747 mmHg 66%
    21:00 +9°C° 0 mm 5 m/s 747 mmHg 66%
    22:00 +9°C° 0 mm 5 m/s 747 mmHg 65%
    23:00 +9°C° 0 mm 5 m/s 747 mmHg 65%

    29 Septembre, Vendredi

    Heure Température Précipitation Vent Pression Humidité
    00:00 +9°C° 0 mm 6 m/s 747 mmHg 63%
    01:00 +9°C° 0 mm 6 m/s 747 mmHg 62%
    02:00 +9°C° 0 mm 6 m/s 746 mmHg 60%
    03:00 +9°C° 0 mm 6 m/s 746 mmHg 60%
    04:00 +9°C° 0 mm 6 m/s 746 mmHg 60%
    05:00 +9°C° 0 mm 6 m/s 746 mmHg 60%
    06:00 +10°C° 0,1 mm 7 m/s 746 mmHg 59%
    07:00 +10°C° 0,1 mm 7 m/s 746 mmHg 59%
    08:00 +11°C° 0,1 mm 8 m/s 746 mmHg 58%
    09:00 +11°C° 0,1 mm 8 m/s 746 mmHg 58%
    10:00 +12°C° 0,1 mm 8 m/s 746 mmHg 58%
    11:00 +12°C° 0,1 mm 8 m/s 746 mmHg 57%
    12:00 +13°C° 0,1 mm 8 m/s 746 mmHg 53%
    13:00 +15°C° 0,1 mm 8 m/s 745 mmHg 48%
    14:00 +16°C° 0,1 mm 8 m/s 745 mmHg 44%
    15:00 +15°C° 0 mm 8 m/s 745 mmHg 44%
    16:00 +15°C° 0 mm 7 m/s 745 mmHg 44%
    17:00 +15°C° 0 mm 7 m/s 745 mmHg 43%
    18:00 +13°C° 0 mm 6 m/s 745 mmHg 48%
    19:00 +11°C° 0 mm 6 m/s 745 mmHg 53%
    20:00 +9°C° 0 mm 5 m/s 745 mmHg 58%
    21:00 +9°C° 0 mm 5 m/s 744 mmHg 58%
    22:00 +9°C° 0 mm 5 m/s 744 mmHg 57%
    23:00 +8°C° 0 mm 5 m/s 744 mmHg 57%
    Voir plus